Regional Weather Roundup
Issued by NWS State College, PA

Home | Current Version | Previous Version | Text Only | Print | Product List | Glossary Off
Versions: 1 2 3 4 5 6 7 8 9 10 11 12 13 14 15 16 17 18 19 20 21 22 23 24 25 26 27 28 29 30 31 32 33 34 35 36 37 38 39 40 41 42 43 44 45 46 47 48 49 50

922
ASUS41 KCTP 261010
RWRCTP

REGIONAL WEATHER ROUNDUP
NATIONAL WEATHER SERVICE STATE COLLEGE PA
600 AM EDT THU MAY 26 2016

Note: "fair" indicates few or no clouds below 12,000 feet with no
significant weather and/or obstructions to visibility.

* = STATION THAT DOES NOT REPORT PRECIPITATION /E.G. RAIN...SNOW...ETC/
    THUNDER OR FOG.

PAZ002>004-007>009-013>016-020>023-029>032-261100-
WESTERN PENNSYLVANIA

CITY           SKY/WX    TMP DP  RH WIND       PRES   REMARKS
ERIE           MOCLDY    69  56  62 S13       30.04S
MEADVILLE      CLOUDY    65  55  70 S5        30.09R
FRANKLIN*      CLOUDY    64  54  68 S8        30.13R
NEW CASTLE     CLOUDY    67  58  72 VRB5      30.10R
BEAVER COUNTY  NOT AVBL
BUTLER*        CLOUDY   N/A N/A N/A S3        30.13S
PITTSBURGH INT CLOUDY    67  55  65 S5        30.10S
PITTSBURGH     CLOUDY    67  54  63 S7        30.10S
INDIANA*       CLOUDY    63  55  77 CALM      30.16R
LATROBE        PTCLDY    63  59  88 CALM      30.13R
WASHINGTON CO* CLOUDY    61  55  82 CALM      30.12S
$$

PAZ004>006-010>012-017>019-024>028-033>037-041-042-045-046-049>053-261100-
CENTRAL PENNSYLVANIA

CITY           SKY/WX    TMP DP  RH WIND       PRES   REMARKS
BRADFORD       CLOUDY    53  49  86 CALM      30.14S
DUBOIS         CLOUDY    61  50  67 CALM      30.13S
CLEARFIELD     CLOUDY    58  51  78 CALM      30.14S
JOHNSTOWN      CLOUDY    64  47  53 S6        30.16R
ALTOONA        CLOUDY    62  54  74 CALM      30.14S
STATE COLLEGE  CLOUDY    61  52  72 CALM      30.13S
WILLIAMSPORT   CLOUDY    59  52  77 CALM      30.11S
SELINSGROVE    CLOUDY    56  53  90 CALM      30.12S
FT INDIANTOWN  CLOUDY    56  56 100 CALM      30.12R
CAPITAL CITY   CLEAR     60  54  80 CALM      30.12R
HARRISBURG     MOCLDY    59  54  83 CALM      30.11R
YORK           CLEAR     53  52  96 CALM      30.12R FOG
$$

PAZ038>040-043-044-047-048-054-055-060>062-067>071-261100-
EASTERN PENNSYLVANIA

CITY           SKY/WX    TMP DP  RH WIND       PRES   REMARKS
SCRANTON       CLOUDY    59  51  75 E6        30.13R
MOUNT POCONO   CLEAR     48  48 100 NW6       30.16R
ALLENTOWN      MOCLDY    57  53  86 NW5       30.11R
QUAKERTOWN*    MOSUNNY   55  54  94 CALM      30.13R
READING        CLEAR     58  54  86 NW3       30.11R
LANCASTER      CLEAR     54  53  97 CALM      30.12R FOG
COATESVILLE    SUNNY     59  52  77 CALM      30.14R
POTTSTOWN      PTCLDY    55  53  93 CALM      30.13R
BLUE BELL      MOCLDY    55  54  94 CALM      30.12R
DOYLESTOWN     PTCLDY    59  52  77 CALM      30.11R
WILLOW GROVE   NOT AVBL
NORTH PHILA    PTCLDY    63  56  78 SW3       30.13R
PHILADELPHIA   CLOUDY    64  55  72 W6        30.12R
$$




USA.gov is the U.S. government's official web portal to all federal, state and local government web resources and services.